North Bend, OR

6:46 AM PST on December 04, 2016 (GMT -0800)
North Bend Municipal

Weather History for KOTH - December, 2011

Change the Weather History Date:

Wednesday, December 14, 2011

  Actual Average Record
Temperature  
Mean Temperature 41 °F 45 °F  
Max Temperature 50 °F 51 °F 67 °F (1962)
Min Temperature 32 °F 40 °F 19 °F (1919)
Degree Days  
Heating Degree Days 24 20  
Month to date heating degree days 346 273  
Since 1 July heating degree days 1697 1725  
Cooling Degree Days 0 0  
Month to date cooling degree days 0 0  
Year to date cooling degree days 1 2  
Moisture  
Dew Point 32 °F    
Average Humidity 68    
Maximum Humidity 76    
Minimum Humidity 56    
Precipitation  
Precipitation 0.04 in 0.36 in 3.49 in (2002)
Month to date precipitation 0.04 5.13  
Year to date precipitation 36.45 58.91  
Sea Level Pressure  
Sea Level Pressure 30.17 in    
Wind  
Wind Speed 11 mph (SSE)    
Max Wind Speed 16 mph    
Max Gust Speed 28 mph    
Visibility 10 miles    
Events      
T = Trace of Precipitation, MM = Missing Value Source: NWS Daily Summary

Daily Weather History Graph

Daily Weather History Graph

Search for Another Location

Airport or City:

Trip Planner

Search our weather history database for the weather conditions in past years. The results will help you decide how hot, cold, wet, or windy it might be!

Date:

Astronomy

Dec. 14, 2011 Rise Set
Actual Time 7:41 AM PST 4:41 PM PST
Civil Twilight 7:09 AM PST 5:13 PM PST
Nautical Twilight 6:33 AM PST 5:50 PM PST
Astronomical Twilight 5:58 AM PST 6:24 PM PST
Moon 9:13 PM PST (12/14) 10:24 AM PST (12/14)
Length of Visible Light 10h 04m
Length of Day
8h 59m
Waning Gibbous, 82% of the Moon is Illuminated
Dec 14
Waning Gibbous
Dec 17
Last Quarter
Dec 24
New
Dec 31
First Quarter
Jan 8
Full

Hourly Weather History & Observations

Time (PST) Temp. Windchill Dew Point Humidity Pressure Visibility Wind Dir Wind Speed Gust Speed Precip Events Conditions
12:15 AM 33.8 °F 26.4 °F 26.6 °F 75% 30.15 in 10.0 mi SE 9.2 mph - N/A   Clear
12:35 AM 33.8 °F 27.0 °F 24.8 °F 70% 30.17 in 10.0 mi SE 8.1 mph - N/A   Clear
12:55 AM 32.0 °F 24.2 °F 24.8 °F 75% 30.17 in 10.0 mi SE 9.2 mph - N/A   Scattered Clouds
1:15 AM 33.8 °F 27.7 °F 26.6 °F 75% 30.18 in 10.0 mi SE 6.9 mph - N/A   Overcast
1:35 AM 33.8 °F 25.8 °F 26.6 °F 75% 30.18 in 10.0 mi SE 10.4 mph - N/A   Overcast
1:55 AM 33.8 °F 26.4 °F 26.6 °F 75% 30.19 in 10.0 mi SE 9.2 mph - N/A   Overcast
2:15 AM 35.6 °F 28.6 °F 28.4 °F 75% 30.20 in 10.0 mi SE 9.2 mph - N/A   Overcast
2:35 AM 35.6 °F 29.9 °F 26.6 °F 70% 30.20 in 10.0 mi SE 6.9 mph - N/A   Overcast
2:55 AM 35.6 °F 29.2 °F 28.4 °F 75% 30.20 in 10.0 mi SE 8.1 mph - N/A   Overcast
3:15 AM 35.6 °F 28.6 °F 28.4 °F 75% 30.20 in 10.0 mi SE 9.2 mph - N/A   Overcast
3:35 AM 37.4 °F 31.4 °F 28.4 °F 70% 30.19 in 10.0 mi SSE 8.1 mph - N/A   Overcast
3:55 AM 37.4 °F 31.4 °F 28.4 °F 70% 30.20 in 10.0 mi SSE 8.1 mph - N/A   Overcast
4:15 AM 37.4 °F 31.4 °F 28.4 °F 70% 30.20 in 10.0 mi SSE 8.1 mph - N/A   Overcast
4:35 AM 37.4 °F 30.8 °F 28.4 °F 70% 30.20 in 10.0 mi SSE 9.2 mph - N/A   Overcast
4:55 AM 37.4 °F 31.4 °F 28.4 °F 70% 30.20 in 10.0 mi SSE 8.1 mph - N/A   Overcast
5:15 AM 37.4 °F 31.4 °F 28.4 °F 70% 30.21 in 10.0 mi SSE 8.1 mph - N/A   Overcast
5:35 AM 37.4 °F 32.1 °F 30.2 °F 75% 30.22 in 10.0 mi SSE 6.9 mph - N/A   Overcast
5:55 AM 37.4 °F 31.4 °F 30.2 °F 75% 30.22 in 10.0 mi SSE 8.1 mph - N/A   Overcast
6:15 AM 35.6 °F 29.9 °F 28.4 °F 75% 30.21 in 10.0 mi South 6.9 mph - N/A   Overcast
6:55 AM 37.4 °F 31.4 °F 30.2 °F 75% 30.23 in 10.0 mi South 8.1 mph - N/A   Overcast
7:15 AM 37.4 °F 30.8 °F 30.2 °F 75% 30.23 in 10.0 mi SSE 9.2 mph - N/A   Overcast
7:35 AM 37.4 °F 32.1 °F 30.2 °F 75% 30.24 in 10.0 mi SSE 6.9 mph - N/A   Overcast
7:55 AM 37.4 °F 30.8 °F 30.2 °F 75% 30.24 in 10.0 mi SSE 9.2 mph - N/A   Overcast
8:15 AM 39.2 °F 33.0 °F 30.2 °F 70% 30.24 in 10.0 mi South 9.2 mph - N/A   Overcast
8:35 AM 39.2 °F 33.0 °F 30.2 °F 70% 30.23 in 10.0 mi SSE 9.2 mph - N/A   Overcast
8:55 AM 39.2 °F 33.0 °F 30.2 °F 70% 30.23 in 10.0 mi SSE 9.2 mph - N/A   Overcast
9:15 AM 39.2 °F 33.6 °F 30.2 °F 70% 30.24 in 10.0 mi SSE 8.1 mph - N/A   Overcast
9:35 AM 39.2 °F 33.6 °F 32.0 °F 75% 30.25 in 10.0 mi SSE 8.1 mph - N/A   Overcast
9:55 AM 41.0 °F 34.7 °F 32.0 °F 70% 30.24 in 10.0 mi SSE 10.4 mph - N/A   Overcast
10:15 AM 41.0 °F 35.2 °F 32.0 °F 70% 30.23 in 10.0 mi SSE 9.2 mph - N/A   Overcast
10:35 AM 42.8 °F 37.5 °F 33.8 °F 70% 30.23 in 10.0 mi South 9.2 mph - N/A   Mostly Cloudy
10:55 AM 42.8 °F 38.0 °F 32.0 °F 66% 30.22 in 10.0 mi SSE 8.1 mph - N/A   Mostly Cloudy
11:15 AM 44.6 °F 39.7 °F 33.8 °F 66% 30.21 in 10.0 mi South 9.2 mph - N/A   Scattered Clouds
11:35 AM 46.4 °F 42.4 °F 33.8 °F 62% 30.21 in 10.0 mi SSE 8.1 mph - N/A   Clear
11:55 AM 46.4 °F 41.5 °F 33.8 °F 62% 30.20 in 10.0 mi SSE 10.4 mph - N/A   Mostly Cloudy
12:15 PM 48.2 °F - 35.6 °F 62% 30.18 in 10.0 mi SE 9.2 mph - N/A   Mostly Cloudy
12:35 PM 48.2 °F - 35.6 °F 62% 30.17 in 10.0 mi SE 8.1 mph - N/A   Mostly Cloudy
12:55 PM 48.2 °F - 33.8 °F 58% 30.17 in 10.0 mi SE 6.9 mph - N/A   Mostly Cloudy
1:15 PM 50.0 °F - 35.6 °F 58% 30.17 in 10.0 mi South 8.1 mph - N/A   Mostly Cloudy
1:35 PM 50.0 °F - 33.8 °F 54% 30.17 in 10.0 mi South 5.8 mph - N/A   Overcast
1:55 PM 50.0 °F - 35.6 °F 58% 30.15 in 10.0 mi SSW 12.7 mph 18.4 mph N/A   Overcast
2:15 PM 48.2 °F - 33.8 °F 58% 30.15 in 10.0 mi SSW 15.0 mph 25.3 mph N/A   Overcast
2:35 PM 48.2 °F - 33.8 °F 58% 30.14 in 10.0 mi SSW 12.7 mph 23.0 mph N/A   Overcast
2:55 PM 48.2 °F - 33.8 °F 58% 30.13 in 10.0 mi SSW 15.0 mph 27.6 mph N/A   Overcast
3:15 PM 48.2 °F - 33.8 °F 58% 30.13 in 10.0 mi SSW 15.0 mph 20.7 mph N/A   Overcast
3:35 PM 48.2 °F - 33.8 °F 58% 30.11 in 10.0 mi South 10.4 mph - N/A   Overcast
3:55 PM 48.2 °F - 33.8 °F 58% 30.12 in 10.0 mi SSW 6.9 mph - N/A   Mostly Cloudy
4:15 PM 48.2 °F - 33.8 °F 58% 30.12 in 10.0 mi SSW 6.9 mph - N/A   Overcast
4:35 PM 48.2 °F - 33.8 °F 58% 30.14 in 10.0 mi SW 10.4 mph - N/A   Overcast
4:55 PM 46.4 °F 39.8 °F 33.8 °F 62% 30.14 in 8.0 mi SSW 16.1 mph 24.2 mph N/A   Overcast
5:15 PM 44.6 °F 38.1 °F 33.8 °F 66% 30.13 in 10.0 mi South 13.8 mph 27.6 mph 0.03 in   Overcast
5:35 PM 44.6 °F 38.4 °F 33.8 °F 66% 30.12 in 10.0 mi SSE 12.7 mph - 0.04 in   Overcast
5:55 PM 44.6 °F 38.8 °F 35.6 °F 71% 30.10 in 10.0 mi SE 11.5 mph - 0.04 in   Overcast
6:15 PM 42.8 °F 35.8 °F 35.6 °F 76% 30.08 in 10.0 mi SE 13.8 mph - N/A   Overcast
6:35 PM 44.6 °F 37.8 °F 35.6 °F 71% 30.07 in 10.0 mi SE 15.0 mph - N/A   Overcast
6:55 PM 44.6 °F 37.8 °F 35.6 °F 71% 30.06 in 10.0 mi SE 15.0 mph - N/A   Overcast
7:15 PM 44.6 °F 38.4 °F 35.6 °F 71% 30.06 in 10.0 mi SE 12.7 mph - N/A   Overcast
7:35 PM 44.6 °F 37.4 °F 35.6 °F 71% 30.05 in 10.0 mi SE 16.1 mph 20.7 mph N/A   Overcast
7:55 PM 44.6 °F 37.4 °F 35.6 °F 71% 30.05 in 10.0 mi SE 16.1 mph - N/A   Mostly Cloudy
8:15 PM 44.6 °F 38.4 °F 35.6 °F 71% 30.06 in 10.0 mi SE 12.7 mph - N/A   Mostly Cloudy
8:35 PM 44.6 °F 38.1 °F 35.6 °F 71% 30.06 in 10.0 mi SE 13.8 mph 18.4 mph N/A   Overcast
8:55 PM 44.6 °F 38.8 °F 35.6 °F 71% 30.07 in 10.0 mi SE 11.5 mph - N/A   Overcast
9:15 PM 44.6 °F 39.2 °F 35.6 °F 71% 30.07 in 10.0 mi SE 10.4 mph - N/A   Overcast
9:35 PM 44.6 °F 38.1 °F 35.6 °F 71% 30.07 in 10.0 mi SE 13.8 mph - N/A   Mostly Cloudy
9:55 PM 44.6 °F 37.8 °F 35.6 °F 71% 30.07 in 10.0 mi SE 15.0 mph 21.9 mph N/A   Mostly Cloudy
10:15 PM 44.6 °F 38.1 °F 33.8 °F 66% 30.07 in 10.0 mi SE 13.8 mph - N/A   Mostly Cloudy
10:35 PM 44.6 °F 39.2 °F 33.8 °F 66% 30.08 in 10.0 mi SE 10.4 mph - N/A   Clear
10:55 PM 44.6 °F 38.4 °F 33.8 °F 66% 30.08 in 10.0 mi SE 12.7 mph - N/A   Partly Cloudy
11:15 PM 44.6 °F 38.8 °F 33.8 °F 66% 30.08 in 10.0 mi SE 11.5 mph - N/A   Partly Cloudy
11:35 PM 42.8 °F 36.6 °F 33.8 °F 70% 30.08 in 10.0 mi SE 11.5 mph - N/A   Partly Cloudy
11:55 PM 42.8 °F 37.5 °F 33.8 °F 70% 30.09 in 10.0 mi SE 9.2 mph - N/A   Clear